Simultaneous Nadir Overpasses (SNOs) Predictions

Prediction of SNOs between GOES-16 and METOP-C Satellite Orbit:

Table of predicted SNOs for the next 14.0 days since TLE Epoch: 4/6/2024
Index Date Time (GOES-16) GOES-16 Lat,Lon METOP-C Lat,Lon Distance(km) Time Diff (sec)
1 04/08/2024 02:31:36 -0.03, -75.21 -0.02, -75.21 1.23 80
2 04/10/2024 14:29:47 0.03, -75.25 -0.10, -74.78 53.73 80
3 04/12/2024 02:48:44 -0.02, -75.25 -0.95, -79.36 469.34 80
4 04/13/2024 02:25:24 -0.02, -75.26 0.17, -74.37 101.21 80
5 04/14/2024 14:44:15 0.01, -75.29 0.82, -78.93 414.80 80
6 04/15/2024 14:26:14 0.01, -75.31 -0.30, -73.94 156.22 80
7 04/17/2024 02:45:12 -0.00, -75.32 -0.74, -78.52 365.53 80
8 04/18/2024 02:21:51 -0.00, -75.33 0.38, -73.52 206.06 80
9 04/19/2024 14:40:43 0.00, -75.38 0.60, -78.09 308.27 80
